AFL3500 ULLI-URSS

Flight info

Callsign AFL3500
Flight time N/A
Altitude 36000
Route SUGIN1B SUGIN T873 NIRGI DCT OSKAD DCT UPERI DCT OMEZA DCT ABAGI B105 NIMTA DCT SL DCT LIDUS DCT AST DCT DITEK DCT GOTIK DCT MEMZA DCT OKOBA DCT VENFO DCT BINOL BINOL1K
Aircraft A321/M-SDE3FGHIRWY/LB1

Departure

Time N/A
Airport Pulkovo Airport (ULLI)

Arrival

Time 2026-05-07 21:01
Airport Sochi International Airport (URSS)
Time Latitude Longitude Altitude Speed Heading
2026-05-07 20:29 43.66737 42.44787 36216 ft 463 kts 272°
2026-05-07 20:29 43.66820 42.40342 36216 ft 463 kts 272°
2026-05-07 20:30 43.67014 42.31448 36214 ft 463 kts 272°
2026-05-07 20:30 43.67191 42.22557 36220 ft 463 kts 272°
2026-05-07 20:31 43.67329 42.13649 36226 ft 464 kts 272°
2026-05-07 20:31 43.67461 42.04731 36229 ft 464 kts 272°
2026-05-07 20:32 43.67592 41.95829 36240 ft 464 kts 272°
2026-05-07 20:32 43.67721 41.86966 36237 ft 464 kts 272°
2026-05-07 20:33 43.67845 41.78053 36237 ft 464 kts 272°
2026-05-07 20:33 43.67960 41.69136 36240 ft 464 kts 272°
2026-05-07 20:34 43.68069 41.60211 36245 ft 464 kts 272°
2026-05-07 20:34 43.68167 41.51338 36242 ft 464 kts 272°
2026-05-07 20:35 43.68257 41.42413 36232 ft 464 kts 272°
2026-05-07 20:35 43.68346 41.33495 36235 ft 464 kts 272°
2026-05-07 20:36 43.68430 41.24558 36233 ft 464 kts 272°
2026-05-07 20:36 43.68501 41.15630 36233 ft 464 kts 272°
2026-05-07 20:37 43.68566 41.06673 35174 ft 474 kts 272°
2026-05-07 20:37 43.68600 41.02061 34220 ft 482 kts 272°
2026-05-07 20:37 43.68631 40.97463 33224 ft 487 kts 272°
2026-05-07 20:37 43.68659 40.92717 32315 ft 489 kts 272°
2026-05-07 20:38 43.68683 40.88059 31443 ft 491 kts 272°
2026-05-07 20:38 43.68707 40.83326 30485 ft 495 kts 272°
2026-05-07 20:38 43.68730 40.78533 29346 ft 500 kts 272°
2026-05-07 20:38 43.68750 40.73724 28510 ft 498 kts 272°
2026-05-07 20:39 43.68766 40.68969 27889 ft 492 kts 272°
2026-05-07 20:39 43.68782 40.64264 27217 ft 487 kts 272°
2026-05-07 20:39 43.68798 40.59597 26489 ft 485 kts 272°
2026-05-07 20:39 43.68811 40.54968 25919 ft 479 kts 272°
2026-05-07 20:40 43.68822 40.50381 25264 ft 476 kts 272°
2026-05-07 20:40 43.68832 40.45835 24644 ft 471 kts 271°
2026-05-07 20:40 43.68839 40.41315 24031 ft 467 kts 271°
2026-05-07 20:40 43.68843 40.36911 23371 ft 463 kts 271°
2026-05-07 20:41 43.68842 40.32495 22780 ft 456 kts 271°
2026-05-07 20:41 43.68840 40.28145 22198 ft 449 kts 271°
2026-05-07 20:41 43.68838 40.23854 21653 ft 442 kts 271°
2026-05-07 20:41 43.68707 40.19644 21119 ft 437 kts 262°
2026-05-07 20:42 43.67930 40.15626 20612 ft 431 kts 248°
2026-05-07 20:42 43.66505 40.12021 20115 ft 426 kts 234°
2026-05-07 20:42 43.64535 40.09000 19620 ft 421 kts 221°
2026-05-07 20:42 43.62185 40.06728 19136 ft 415 kts 207°
2026-05-07 20:43 43.59585 40.05044 18654 ft 411 kts 204°
2026-05-07 20:43 43.56985 40.03417 18156 ft 408 kts 204°
2026-05-07 20:43 43.54406 40.01804 17726 ft 406 kts 204°
2026-05-07 20:43 43.51847 40.00207 17293 ft 403 kts 204°
2026-05-07 20:44 43.49300 39.98622 16863 ft 400 kts 204°
2026-05-07 20:44 43.46766 39.97044 16431 ft 397 kts 204°
2026-05-07 20:44 43.44209 39.95636 15915 ft 395 kts 198°
2026-05-07 20:44 43.41587 39.94420 15360 ft 394 kts 198°
2026-05-07 20:45 43.39000 39.93241 15195 ft 389 kts 197°
2026-05-07 20:45 43.36433 39.92081 15217 ft 389 kts 197°
2026-05-07 20:45 43.33880 39.90932 15222 ft 389 kts 197°
2026-05-07 20:45 43.31300 39.89772 14639 ft 393 kts 198°
2026-05-07 20:46 43.28676 39.88585 13817 ft 399 kts 198°
2026-05-07 20:46 43.26077 39.87406 13550 ft 387 kts 198°
2026-05-07 20:46 43.23567 39.86266 13412 ft 373 kts 198°
2026-05-07 20:46 43.21151 39.85167 13278 ft 359 kts 198°
2026-05-07 20:47 43.18819 39.84107 13143 ft 346 kts 198°
2026-05-07 20:47 43.16568 39.83086 13012 ft 335 kts 198°
2026-05-07 20:47 43.14389 39.82101 12879 ft 323 kts 198°
2026-05-07 20:47 43.12285 39.81149 12692 ft 314 kts 198°
2026-05-07 20:48 43.10219 39.80217 12366 ft 311 kts 198°
2026-05-07 20:48 43.08202 39.79308 12015 ft 308 kts 199°
2026-05-07 20:48 43.06337 39.77931 11657 ft 305 kts 223°
2026-05-07 20:48 43.05175 39.75561 11285 ft 301 kts 253°
2026-05-07 20:49 43.04992 39.72755 10895 ft 298 kts 281°
2026-05-07 20:49 43.05561 39.70034 10476 ft 297 kts 288°
2026-05-07 20:49 43.06192 39.67343 10088 ft 297 kts 288°
2026-05-07 20:49 43.06821 39.64661 9689 ft 295 kts 288°
2026-05-07 20:50 43.07442 39.61992 9297 ft 294 kts 288°
2026-05-07 20:50 43.08055 39.59338 8903 ft 292 kts 288°
2026-05-07 20:50 43.08662 39.56695 8526 ft 290 kts 288°
2026-05-07 20:50 43.09255 39.54098 8150 ft 289 kts 288°
2026-05-07 20:51 43.09850 39.51482 7784 ft 287 kts 288°
2026-05-07 20:51 43.10442 39.48880 7409 ft 285 kts 287°
2026-05-07 20:51 43.11107 39.46326 7035 ft 283 kts 300°
2026-05-07 20:51 43.12374 39.44324 6722 ft 277 kts 326°
2026-05-07 20:52 43.14119 39.43306 6582 ft 273 kts 352°
2026-05-07 20:52 43.15979 39.43400 6471 ft 272 kts 17°
2026-05-07 20:52 43.17641 39.44588 6374 ft 270 kts 42°
2026-05-07 20:52 43.18766 39.46620 6275 ft 269 kts 67°
2026-05-07 20:53 43.19403 39.49045 6013 ft 268 kts 72°
2026-05-07 20:53 43.19971 39.51475 5889 ft 268 kts 73°
2026-05-07 20:53 43.20526 39.53914 5755 ft 268 kts 73°
2026-05-07 20:53 43.21079 39.56349 5637 ft 267 kts 72°
2026-05-07 20:54 43.21636 39.58783 5505 ft 267 kts 72°
2026-05-07 20:54 43.22199 39.61232 5041 ft 272 kts 72°
2026-05-07 20:54 43.22764 39.63681 4705 ft 267 kts 72°
2026-05-07 20:54 43.23326 39.66109 4310 ft 267 kts 72°
2026-05-07 20:55 43.23886 39.68530 3935 ft 265 kts 72°
2026-05-07 20:55 43.24441 39.70928 3612 ft 262 kts 73°
2026-05-07 20:55 43.24981 39.73273 3356 ft 260 kts 73°
2026-05-07 20:55 43.25525 39.75631 3113 ft 259 kts 73°
2026-05-07 20:56 43.26070 39.77983 2877 ft 258 kts 73°
2026-05-07 20:56 43.26673 39.80299 2631 ft 257 kts 64°
2026-05-07 20:56 43.27698 39.82280 2460 ft 252 kts 46°
2026-05-07 20:56 43.29062 39.83695 2365 ft 241 kts 30°
2026-05-07 20:57 43.30486 39.84756 2296 ft 228 kts 29°
2026-05-07 20:57 43.31840 39.85767 2181 ft 213 kts 29°
2026-05-07 20:57 43.33066 39.86683 2110 ft 185 kts 30°
2026-05-07 20:57 43.33778 39.87216 2057 ft 169 kts 30°
2026-05-07 20:58 43.34769 39.87959 1891 ft 158 kts 30°
2026-05-07 20:58 43.35718 39.88670 1711 ft 153 kts 29°
2026-05-07 20:58 43.36648 39.89366 1521 ft 151 kts 30°
2026-05-07 20:58 43.37561 39.90051 1331 ft 148 kts 29°
2026-05-07 20:59 43.38451 39.90718 1144 ft 147 kts 29°
2026-05-07 20:59 43.39354 39.91395 953 ft 146 kts 28°
2026-05-07 20:59 43.40230 39.92052 770 ft 144 kts 28°
2026-05-07 20:59 43.41110 39.92715 588 ft 144 kts 28°
2026-05-07 21:00 43.41985 39.93378 401 ft 143 kts 29°
2026-05-07 21:00 43.42864 39.94037 222 ft 143 kts 28°
2026-05-07 21:00 43.43740 39.94682 66 ft 141 kts 28°
2026-05-07 21:00 43.44471 39.95238 80 ft 91 kts 30°
2026-05-07 21:01 43.44875 39.95543 89 ft 44 kts 28°
2026-05-07 21:01 43.45107 39.95721 92 ft 30 kts 29°
2026-05-07 21:01 43.45256 39.95831 93 ft 11 kts 27°
2026-05-07 21:01 43.45287 39.95781 94 ft 11 kts 252°
2026-05-07 21:02 43.45262 39.95723 92 ft 5 kts 239°
2026-05-07 21:02 43.45244 39.95681 94 ft 5 kts 239°
2026-05-07 21:02 43.45227 39.95643 92 ft 4 kts 239°
2026-05-07 21:02 43.45216 39.95621 95 ft 2 kts 229°
2026-05-07 21:03 43.45200 39.95604 92 ft 2 kts 214°
2026-05-07 21:03 43.45187 39.95592 95 ft 5 kts 212°
2026-05-07 21:03 43.45123 39.95541 93 ft 9 kts 209°
2026-05-07 21:03 43.45066 39.95483 95 ft 11 kts 234°
2026-05-07 21:04 43.45026 39.95368 93 ft 15 kts 245°
2026-05-07 21:04 43.44981 39.95236 87 ft 15 kts 244°
2026-05-07 21:04 43.44927 39.95088 87 ft 20 kts 243°
2026-05-07 21:04 43.44882 39.94956 71 ft 14 kts 245°
2026-05-07 21:05 43.44834 39.94817 72 ft 18 kts 244°
2026-05-07 21:05 43.44792 39.94695 69 ft 13 kts 244°
2026-05-07 21:05 43.44752 39.94576 64 ft 14 kts 244°
2026-05-07 21:05 43.44724 39.94497 69 ft 6 kts 245°
2026-05-07 21:06 43.44721 39.94435 67 ft 7 kts 300°
2026-05-07 21:06 43.44769 39.94403 68 ft 8 kts 335°
2026-05-07 21:06 43.44803 39.94380 70 ft 6 kts 334°
2026-05-07 21:06 43.44815 39.94372 67 ft 0 kts 334°